ARG1624 SABE-SAZB

Flight info

Callsign ARG1624
Flight time 1h 6m
Altitude 38000
Route PTA8 GBE UT694 XODIK UW18 MOXAN MOXAN1U
Aircraft B738/M-SDE2E3FGHIRWXY/LB1

Departure

Time 2026-05-07 00:15
Airport Aeroparque Jorge Newbery (SABE)

Arrival

Time 2026-05-07 01:22
Airport Comandante Espora Airport (SAZB)
Time Latitude Longitude Altitude Speed Heading
2026-05-06 23:40 -34.55821 -58.41405 27 ft 0 kts 208°
2026-05-07 00:01 -34.55814 -58.41401 27 ft 2 kts 204°
2026-05-07 00:01 -34.55800 -58.41393 27 ft 2 kts 208°
2026-05-07 00:02 -34.55791 -58.41380 27 ft 2 kts 255°
2026-05-07 00:02 -34.55792 -58.41361 27 ft 1 kts 295°
2026-05-07 00:02 -34.55795 -58.41355 27 ft 1 kts 309°
2026-05-07 00:02 -34.55797 -58.41352 27 ft 0 kts 305°
2026-05-07 00:04 -34.55785 -58.41373 27 ft 6 kts 303°
2026-05-07 00:05 -34.55748 -58.41452 27 ft 15 kts 301°
2026-05-07 00:05 -34.55736 -58.41562 27 ft 13 kts 216°
2026-05-07 00:05 -34.55819 -58.41550 27 ft 13 kts 120°
2026-05-07 00:05 -34.55862 -58.41443 27 ft 15 kts 116°
2026-05-07 00:06 -34.55912 -58.41320 27 ft 15 kts 117°
2026-05-07 00:06 -34.55977 -58.41210 27 ft 16 kts 129°
2026-05-07 00:06 -34.56050 -58.41092 27 ft 18 kts 128°
2026-05-07 00:06 -34.56123 -58.40974 27 ft 16 kts 125°
2026-05-07 00:07 -34.56172 -58.40866 27 ft 12 kts 88°
2026-05-07 00:07 -34.56198 -58.40777 27 ft 10 kts 123°
2026-05-07 00:07 -34.56239 -58.40708 27 ft 9 kts 123°
2026-05-07 00:07 -34.56279 -58.40633 27 ft 11 kts 125°
2026-05-07 00:08 -34.56331 -58.40552 27 ft 11 kts 134°
2026-05-07 00:08 -34.56358 -58.40522 27 ft 0 kts 137°
2026-05-07 00:09 -34.56364 -58.40516 27 ft 2 kts 139°
2026-05-07 00:09 -34.56381 -58.40499 27 ft 4 kts 139°
2026-05-07 00:10 -34.56406 -58.40472 27 ft 4 kts 136°
2026-05-07 00:10 -34.56410 -58.40467 27 ft 0 kts 135°
2026-05-07 00:13 -34.56411 -58.40465 27 ft 1 kts 137°
2026-05-07 00:13 -34.56443 -58.40434 27 ft 9 kts 139°
2026-05-07 00:13 -34.56505 -58.40377 27 ft 10 kts 171°
2026-05-07 00:13 -34.56559 -58.40418 27 ft 8 kts 258°
2026-05-07 00:14 -34.56544 -58.40466 27 ft 0 kts 304°
2026-05-07 00:14 -34.56541 -58.40470 27 ft 3 kts 304°
2026-05-07 00:15 -34.56434 -58.40663 27 ft 66 kts 305°
2026-05-07 00:15 -34.56040 -58.41371 28 ft 130 kts 306°
2026-05-07 00:15 -34.55451 -58.42404 228 ft 168 kts 306°
2026-05-07 00:15 -34.54816 -58.43587 1002 ft 171 kts 305°
2026-05-07 00:16 -34.54061 -58.44665 1753 ft 172 kts 327°
2026-05-07 00:16 -34.52955 -58.45144 2474 ft 172 kts 356°
2026-05-07 00:16 -34.51764 -58.44777 2989 ft 189 kts 29°
2026-05-07 00:16 -34.50610 -58.43862 3398 ft 214 kts 31°
2026-05-07 00:17 -34.49331 -58.42768 3946 ft 239 kts 42°
2026-05-07 00:17 -34.48439 -58.40929 4336 ft 273 kts 77°
2026-05-07 00:17 -34.48505 -58.38580 4639 ft 283 kts 104°
2026-05-07 00:17 -34.49219 -58.36382 4644 ft 279 kts 114°
2026-05-07 00:18 -34.50035 -58.34221 4641 ft 279 kts 113°
2026-05-07 00:18 -34.50822 -58.32070 4641 ft 279 kts 112°
2026-05-07 00:18 -34.51604 -58.29936 4641 ft 279 kts 112°
2026-05-07 00:18 -34.52401 -58.27762 4642 ft 279 kts 112°
2026-05-07 00:19 -34.53215 -58.25587 4639 ft 279 kts 117°
2026-05-07 00:19 -34.54406 -58.23758 4642 ft 280 kts 141°
2026-05-07 00:19 -34.56034 -58.22454 4654 ft 285 kts 148°
2026-05-07 00:19 -34.57833 -58.21254 5382 ft 300 kts 161°
2026-05-07 00:20 -34.59822 -58.21020 6716 ft 289 kts 190°
2026-05-07 00:20 -34.61762 -58.21611 7794 ft 288 kts 195°
2026-05-07 00:20 -34.63708 -58.22052 8742 ft 292 kts 189°
2026-05-07 00:20 -34.65712 -58.22416 9723 ft 294 kts 190°
2026-05-07 00:21 -34.67769 -58.22845 10289 ft 311 kts 191°
2026-05-07 00:21 -34.69978 -58.23322 10620 ft 334 kts 191°
2026-05-07 00:21 -34.72296 -58.23820 11417 ft 340 kts 191°
2026-05-07 00:21 -34.74629 -58.24325 12149 ft 347 kts 191°
2026-05-07 00:22 -34.77035 -58.24847 12987 ft 350 kts 191°
2026-05-07 00:22 -34.79424 -58.25367 13760 ft 354 kts 191°
2026-05-07 00:22 -34.81852 -58.25896 14541 ft 357 kts 192°
2026-05-07 00:22 -34.84304 -58.26431 15289 ft 361 kts 192°
2026-05-07 00:23 -34.86779 -58.26971 16008 ft 364 kts 192°
2026-05-07 00:23 -34.89280 -58.27517 16723 ft 367 kts 193°
2026-05-07 00:23 -34.91769 -58.28061 17457 ft 368 kts 193°
2026-05-07 00:23 -34.94286 -58.28612 18147 ft 370 kts 193°
2026-05-07 00:24 -34.96836 -58.29170 18822 ft 373 kts 193°
2026-05-07 00:24 -34.99380 -58.29728 19457 ft 375 kts 192°
2026-05-07 00:24 -35.01979 -58.30298 20074 ft 378 kts 192°
2026-05-07 00:24 -35.04562 -58.30864 20647 ft 381 kts 192°
2026-05-07 00:25 -35.07177 -58.31438 21198 ft 384 kts 192°
2026-05-07 00:25 -35.09821 -58.32018 21732 ft 387 kts 192°
2026-05-07 00:25 -35.12445 -58.32650 22178 ft 391 kts 198°
2026-05-07 00:25 -35.14913 -58.34040 22606 ft 390 kts 216°
2026-05-07 00:26 -35.17054 -58.36008 23185 ft 390 kts 219°
2026-05-07 00:26 -35.19255 -58.37991 23545 ft 396 kts 216°
2026-05-07 00:26 -35.21550 -58.39913 24095 ft 397 kts 216°
2026-05-07 00:26 -35.23828 -58.41799 24506 ft 401 kts 216°
2026-05-07 00:27 -35.26143 -58.43714 24958 ft 403 kts 216°
2026-05-07 00:27 -35.28497 -58.45648 25385 ft 406 kts 216°
2026-05-07 00:27 -35.30840 -58.47562 25795 ft 408 kts 216°
2026-05-07 00:27 -35.33219 -58.49500 26190 ft 411 kts 216°
2026-05-07 00:28 -35.35581 -58.51421 26567 ft 413 kts 216°
2026-05-07 00:28 -35.38002 -58.53389 26947 ft 416 kts 216°
2026-05-07 00:28 -35.40431 -58.55362 27312 ft 418 kts 216°
2026-05-07 00:28 -35.42846 -58.57324 27657 ft 420 kts 216°
2026-05-07 00:29 -35.45279 -58.59301 27996 ft 423 kts 216°
2026-05-07 00:29 -35.47745 -58.61305 28327 ft 425 kts 216°
2026-05-07 00:30 -35.55167 -58.67342 29273 ft 431 kts 217°
2026-05-07 00:30 -35.57673 -58.69384 29578 ft 433 kts 217°
2026-05-07 00:30 -35.60202 -58.71446 29870 ft 436 kts 217°
2026-05-07 00:30 -35.62714 -58.73494 30139 ft 438 kts 217°
2026-05-07 00:31 -35.65254 -58.75567 30426 ft 440 kts 217°
2026-05-07 00:31 -35.67810 -58.77655 30771 ft 440 kts 217°
2026-05-07 00:31 -35.70348 -58.79728 31214 ft 437 kts 217°
2026-05-07 00:31 -35.72868 -58.81788 31547 ft 437 kts 218°
2026-05-07 00:32 -35.75389 -58.83853 31892 ft 437 kts 218°
2026-05-07 00:32 -35.77919 -58.85925 32228 ft 437 kts 218°
2026-05-07 00:32 -35.80442 -58.87995 32547 ft 437 kts 218°
2026-05-07 00:32 -35.82981 -58.90078 32875 ft 437 kts 218°
2026-05-07 00:33 -35.85523 -58.92165 33172 ft 437 kts 218°
2026-05-07 00:33 -35.88050 -58.94243 33484 ft 437 kts 218°
2026-05-07 00:33 -35.90561 -58.96307 33786 ft 437 kts 218°
2026-05-07 00:34 -36.00599 -59.04579 34960 ft 436 kts 218°
2026-05-07 00:34 -36.03104 -59.06647 35256 ft 435 kts 218°
2026-05-07 00:35 -36.05610 -59.08718 35545 ft 435 kts 218°
2026-05-07 00:35 -36.08141 -59.10812 35636 ft 438 kts 218°
2026-05-07 00:35 -36.13211 -59.15009 35642 ft 436 kts 218°
2026-05-07 00:36 -36.18121 -59.19078 35642 ft 432 kts 218°
2026-05-07 00:36 -36.23119 -59.23230 35642 ft 433 kts 218°
2026-05-07 00:37 -36.28099 -59.27373 35642 ft 434 kts 218°
2026-05-07 00:37 -36.33119 -59.31555 35641 ft 434 kts 218°
2026-05-07 00:38 -36.38140 -59.35744 35642 ft 434 kts 218°
2026-05-07 00:38 -36.43162 -59.39941 35642 ft 434 kts 218°
2026-05-07 00:39 -36.48144 -59.44112 35642 ft 434 kts 218°
2026-05-07 00:39 -36.53160 -59.48317 35642 ft 434 kts 218°
2026-05-07 00:40 -36.58174 -59.52528 35641 ft 434 kts 218°
2026-05-07 00:40 -36.63191 -59.56747 35641 ft 434 kts 218°
2026-05-07 00:41 -36.68182 -59.60952 35642 ft 434 kts 218°
2026-05-07 00:41 -36.73163 -59.65154 35642 ft 434 kts 219°
2026-05-07 00:42 -36.78152 -59.69369 35641 ft 434 kts 219°
2026-05-07 00:42 -36.83149 -59.73598 35641 ft 432 kts 219°
2026-05-07 00:43 -36.88102 -59.77797 35641 ft 431 kts 219°
2026-05-07 00:43 -36.93072 -59.82018 35642 ft 431 kts 219°
2026-05-07 00:44 -36.98033 -59.86237 35642 ft 431 kts 219°
2026-05-07 00:44 -37.02996 -59.90464 35641 ft 431 kts 218°
2026-05-07 00:45 -37.07936 -59.94679 35641 ft 430 kts 218°
2026-05-07 00:45 -37.12854 -59.99018 35635 ft 427 kts 225°
2026-05-07 00:46 -37.16610 -60.04651 35632 ft 411 kts 236°
2026-05-07 00:46 -37.20194 -60.10178 35641 ft 404 kts 233°
2026-05-07 00:47 -37.23804 -60.15581 35642 ft 405 kts 233°
2026-05-07 00:47 -37.27467 -60.21029 35642 ft 406 kts 233°
2026-05-07 00:48 -37.31115 -60.26426 35641 ft 406 kts 233°
2026-05-07 00:48 -37.34768 -60.31825 35641 ft 406 kts 233°
2026-05-07 00:49 -37.38438 -60.37250 35642 ft 406 kts 233°
2026-05-07 00:49 -37.42116 -60.42692 35642 ft 406 kts 233°
2026-05-07 00:50 -37.45783 -60.48124 35641 ft 405 kts 233°
2026-05-07 00:50 -37.49430 -60.53534 35112 ft 408 kts 232°
2026-05-07 00:51 -37.51279 -60.56280 33977 ft 409 kts 232°
2026-05-07 00:51 -37.53114 -60.59009 33048 ft 404 kts 232°
2026-05-07 00:51 -37.54915 -60.61686 31875 ft 406 kts 232°
2026-05-07 00:51 -37.56746 -60.64414 30550 ft 410 kts 232°
2026-05-07 00:52 -37.58579 -60.67144 29637 ft 401 kts 232°
2026-05-07 00:52 -37.60368 -60.69808 29226 ft 394 kts 232°
2026-05-07 00:52 -37.62133 -60.72445 28729 ft 405 kts 232°
2026-05-07 00:52 -37.63974 -60.75200 28190 ft 412 kts 232°
2026-05-07 00:53 -37.65818 -60.77956 27652 ft 413 kts 232°
2026-05-07 00:53 -37.67692 -60.80757 27101 ft 413 kts 232°
2026-05-07 00:53 -37.69548 -60.83535 26558 ft 412 kts 232°
2026-05-07 00:53 -37.71406 -60.86322 26006 ft 419 kts 232°
2026-05-07 00:54 -37.73293 -60.89153 25448 ft 419 kts 232°
2026-05-07 00:54 -37.75142 -60.91927 24899 ft 418 kts 232°
2026-05-07 00:54 -37.77015 -60.94741 24340 ft 415 kts 232°
2026-05-07 00:54 -37.78870 -60.97530 23783 ft 412 kts 231°
2026-05-07 00:55 -37.80710 -61.00299 23223 ft 410 kts 231°
2026-05-07 00:55 -37.82525 -61.03033 22667 ft 408 kts 231°
2026-05-07 00:55 -37.84352 -61.05788 22106 ft 405 kts 231°
2026-05-07 00:55 -37.86166 -61.08525 21548 ft 403 kts 231°
2026-05-07 00:56 -37.87946 -61.11212 20999 ft 401 kts 231°
2026-05-07 00:56 -37.89746 -61.13934 20442 ft 399 kts 231°
2026-05-07 00:56 -37.91528 -61.16629 19887 ft 397 kts 231°
2026-05-07 00:56 -37.93290 -61.19297 19336 ft 395 kts 231°
2026-05-07 00:57 -37.95054 -61.21969 18773 ft 389 kts 231°
2026-05-07 00:57 -37.96756 -61.24548 18268 ft 374 kts 231°
2026-05-07 00:57 -37.98405 -61.27051 17712 ft 364 kts 231°
2026-05-07 00:57 -38.00006 -61.29481 17224 ft 347 kts 231°
2026-05-07 00:58 -38.01514 -61.31773 16754 ft 335 kts 231°
2026-05-07 00:58 -38.03001 -61.34036 16279 ft 324 kts 231°
2026-05-07 00:58 -38.04402 -61.36168 15835 ft 310 kts 231°
2026-05-07 00:58 -38.05771 -61.38252 15401 ft 305 kts 231°
2026-05-07 00:59 -38.08495 -61.42406 14530 ft 306 kts 231°
2026-05-07 00:59 -38.09846 -61.44467 14096 ft 304 kts 231°
2026-05-07 00:59 -38.11198 -61.46532 13661 ft 302 kts 231°
2026-05-07 01:00 -38.12539 -61.48580 13233 ft 299 kts 231°
2026-05-07 01:00 -38.13850 -61.50584 12807 ft 288 kts 231°
2026-05-07 01:00 -38.15122 -61.52528 12400 ft 282 kts 231°
2026-05-07 01:00 -38.16364 -61.54431 11999 ft 282 kts 231°
2026-05-07 01:01 -38.17644 -61.56392 11582 ft 282 kts 231°
2026-05-07 01:01 -38.18895 -61.58308 11174 ft 280 kts 231°
2026-05-07 01:01 -38.20135 -61.60209 10770 ft 279 kts 231°
2026-05-07 01:01 -38.21373 -61.62109 10364 ft 277 kts 231°
2026-05-07 01:02 -38.22601 -61.63993 10073 ft 274 kts 231°
2026-05-07 01:02 -38.23816 -61.65861 9930 ft 273 kts 232°
2026-05-07 01:02 -38.25040 -61.67743 9729 ft 277 kts 232°
2026-05-07 01:02 -38.26197 -61.69521 9393 ft 276 kts 232°
2026-05-07 01:03 -38.27425 -61.71411 9045 ft 273 kts 232°
2026-05-07 01:03 -38.28630 -61.73266 8705 ft 273 kts 232°
2026-05-07 01:03 -38.29844 -61.75136 8361 ft 272 kts 232°
2026-05-07 01:03 -38.31041 -61.76980 8021 ft 272 kts 232°
2026-05-07 01:04 -38.32257 -61.78856 7677 ft 271 kts 233°
2026-05-07 01:04 -38.33458 -61.80710 7333 ft 271 kts 233°
2026-05-07 01:04 -38.34652 -61.82552 6992 ft 270 kts 233°
2026-05-07 01:04 -38.35854 -61.84409 6648 ft 270 kts 233°
2026-05-07 01:05 -38.37043 -61.86248 6307 ft 270 kts 233°
2026-05-07 01:05 -38.38248 -61.88112 5963 ft 270 kts 233°
2026-05-07 01:05 -38.39430 -61.89940 5624 ft 270 kts 233°
2026-05-07 01:05 -38.40623 -61.91788 5278 ft 269 kts 232°
2026-05-07 01:06 -38.41814 -61.93640 4939 ft 268 kts 227°
2026-05-07 01:06 -38.42963 -61.95458 4642 ft 252 kts 227°
2026-05-07 01:06 -38.44021 -61.97086 4590 ft 234 kts 226°
2026-05-07 01:06 -38.45071 -61.98697 4429 ft 232 kts 226°
2026-05-07 01:07 -38.46098 -62.00283 4344 ft 233 kts 226°
2026-05-07 01:07 -38.47132 -62.01888 4244 ft 232 kts 226°
2026-05-07 01:07 -38.48156 -62.03477 4122 ft 232 kts 226°
2026-05-07 01:07 -38.49189 -62.05084 3988 ft 232 kts 226°
2026-05-07 01:08 -38.50196 -62.06651 3899 ft 222 kts 226°
2026-05-07 01:08 -38.51138 -62.08120 3778 ft 209 kts 225°
2026-05-07 01:08 -38.52056 -62.09547 3438 ft 207 kts 225°
2026-05-07 01:08 -38.52967 -62.10969 3241 ft 200 kts 226°
2026-05-07 01:09 -38.53592 -62.12557 3184 ft 206 kts 247°
2026-05-07 01:09 -38.53976 -62.14351 3043 ft 210 kts 247°
2026-05-07 01:09 -38.54384 -62.16150 2923 ft 206 kts 247°
2026-05-07 01:09 -38.54789 -62.17921 2869 ft 208 kts 246°
2026-05-07 01:10 -38.55246 -62.19651 2792 ft 204 kts 234°
2026-05-07 01:10 -38.56224 -62.20802 2713 ft 189 kts 195°
2026-05-07 01:10 -38.57516 -62.20958 2587 ft 183 kts 170°
2026-05-07 01:10 -38.58741 -62.20533 2426 ft 183 kts 163°
2026-05-07 01:11 -38.59967 -62.20086 2246 ft 175 kts 163°
2026-05-07 01:11 -38.61086 -62.19674 2117 ft 161 kts 162°
2026-05-07 01:11 -38.62171 -62.19271 2027 ft 162 kts 162°
2026-05-07 01:11 -38.63248 -62.18870 1829 ft 159 kts 162°
2026-05-07 01:12 -38.64229 -62.18506 1657 ft 141 kts 161°
2026-05-07 01:12 -38.65124 -62.18174 1476 ft 127 kts 161°
2026-05-07 01:12 -38.65980 -62.17854 1330 ft 127 kts 160°
2026-05-07 01:12 -38.66822 -62.17541 1175 ft 127 kts 160°
2026-05-07 01:13 -38.67680 -62.17222 1019 ft 126 kts 159°
2026-05-07 01:13 -38.68524 -62.16907 866 ft 125 kts 159°
2026-05-07 01:13 -38.69340 -62.16603 719 ft 126 kts 159°
2026-05-07 01:13 -38.70177 -62.16291 567 ft 125 kts 158°
2026-05-07 01:14 -38.71012 -62.15980 417 ft 125 kts 158°
2026-05-07 01:14 -38.71861 -62.15695 264 ft 126 kts 160°
2026-05-07 01:14 -38.72695 -62.15409 474 ft 132 kts 158°
2026-05-07 01:14 -38.73553 -62.15099 1139 ft 136 kts 160°
2026-05-07 01:15 -38.74421 -62.14753 1878 ft 127 kts 161°
2026-05-07 01:15 -38.75195 -62.14454 2549 ft 116 kts 164°
2026-05-07 01:15 -38.75628 -62.14301 2725 ft 121 kts 164°
2026-05-07 01:15 -38.75792 -62.14241 2782 ft 123 kts 163°
2026-05-07 01:16 -38.76652 -62.13823 2814 ft 147 kts 139°
2026-05-07 01:16 -38.77133 -62.12746 2733 ft 143 kts 79°
2026-05-07 01:16 -38.76640 -62.11799 3115 ft 130 kts 23°
2026-05-07 01:16 -38.75805 -62.11417 3406 ft 134 kts 22°
2026-05-07 01:17 -38.74883 -62.10936 3469 ft 148 kts 21°
2026-05-07 01:17 -38.73923 -62.10472 3433 ft 148 kts 20°
2026-05-07 01:17 -38.72964 -62.10009 3383 ft 145 kts 21°
2026-05-07 01:17 -38.71994 -62.09540 3391 ft 164 kts 20°
2026-05-07 01:18 -38.70879 -62.09005 3303 ft 176 kts 21°
2026-05-07 01:18 -38.69716 -62.08479 3118 ft 177 kts 10°
2026-05-07 01:18 -38.68499 -62.08665 3010 ft 177 kts 346°
2026-05-07 01:18 -38.67673 -62.08969 2998 ft 179 kts 345°
2026-05-07 01:19 -38.66525 -62.09447 2534 ft 172 kts 344°
2026-05-07 01:19 -38.65489 -62.10157 2076 ft 181 kts 313°
2026-05-07 01:19 -38.65033 -62.11706 1638 ft 193 kts 276°
2026-05-07 01:19 -38.65279 -62.13365 1354 ft 187 kts 244°
2026-05-07 01:20 -38.66015 -62.14794 1386 ft 195 kts 234°
2026-05-07 01:20 -38.66919 -62.16103 1517 ft 195 kts 218°
2026-05-07 01:20 -38.68052 -62.16850 1494 ft 176 kts 193°
2026-05-07 01:20 -38.69190 -62.16765 947 ft 160 kts 154°
2026-05-07 01:21 -38.70137 -62.16362 675 ft 143 kts 159°
2026-05-07 01:21 -38.71096 -62.15985 425 ft 138 kts 158°
2026-05-07 01:21 -38.72037 -62.15630 267 ft 138 kts 158°
2026-05-07 01:21 -38.72818 -62.15303 255 ft 81 kts 156°
2026-05-07 01:22 -38.73011 -62.15236 255 ft 0 kts 167°
2026-05-07 01:22 -38.73166 -62.15217 255 ft 35 kts 163°
2026-05-07 01:22 -38.73323 -62.15218 255 ft 19 kts 254°
2026-05-07 01:22 -38.73316 -62.15288 255 ft 5 kts 282°
2026-05-07 01:23 -38.73296 -62.15378 255 ft 12 kts 297°
2026-05-07 01:23 -38.73227 -62.15427 255 ft 18 kts 342°
2026-05-07 01:23 -38.73053 -62.15499 255 ft 25 kts 348°
2026-05-07 01:23 -38.72992 -62.15694 255 ft 34 kts 271°
2026-05-07 01:24 -38.72943 -62.15876 255 ft 18 kts
2026-05-07 01:24 -38.72581 -62.15825 255 ft 72 kts
2026-05-07 01:24 -38.72123 -62.15904 255 ft 43 kts 345°
2026-05-07 01:24 -38.71962 -62.15966 255 ft 42 kts 341°
2026-05-07 01:25 -38.71696 -62.16069 255 ft 26 kts 340°
2026-05-07 01:25 -38.71643 -62.16205 255 ft 15 kts 280°
2026-05-07 01:25 -38.71644 -62.16299 255 ft 3 kts 263°
2026-05-07 01:25 -38.71644 -62.16304 255 ft 0 kts 274°